TimeCST,TemperatureF,Dew PointF,Humidity,Sea Level PressureIn,VisibilityMPH,Wind Direction,Wind SpeedMPH,Gust SpeedMPH,PrecipitationIn,Events,Conditions,WindDirDegrees,DateUTC
12:55 AM,23.4,16.5,75,30.26,10.0,NW,8.1,-,N/A,,Clear,320,2012-12-29 06:55:00
1:55 AM,23.4,16.3,75,30.27,10.0,NW,6.9,-,N/A,,Clear,320,2012-12-29 07:55:00
2:55 AM,21.7,16.2,79,30.30,10.0,WNW,6.9,-,N/A,,Clear,300,2012-12-29 08:55:00
3:55 AM,21.2,15.8,80,30.32,10.0,NW,5.8,-,N/A,,Clear,310,2012-12-29 09:55:00
4:55 AM,19.2,15.4,85,30.32,10.0,West,3.5,-,N/A,,Clear,270,2012-12-29 10:55:00
5:55 AM,19.8,15.3,83,30.36,10.0,WNW,3.5,-,N/A,,Clear,300,2012-12-29 11:55:00
6:55 AM,19.8,15.1,82,30.39,10.0,WSW,4.6,-,N/A,,Clear,250,2012-12-29 12:55:00
7:55 AM,19.0,14.5,83,30.40,10.0,West,4.6,-,N/A,,Clear,280,2012-12-29 13:55:00
8:55 AM,21.6,15.6,78,30.43,10.0,West,8.1,-,N/A,,Clear,260,2012-12-29 14:55:00
9:55 AM,26.4,18.7,73,30.45,10.0,WNW,5.8,-,N/A,,Clear,300,2012-12-29 15:55:00
10:55 AM,31.6,20.3,63,30.45,10.0,NW,3.5,-,N/A,,Clear,320,2012-12-29 16:55:00
11:55 AM,36.0,22.5,58,30.43,10.0,WNW,4.6,-,N/A,,Clear,290,2012-12-29 17:55:00
12:55 PM,40.1,24.4,54,30.41,10.0,NW,3.5,-,N/A,,Clear,310,2012-12-29 18:55:00
1:55 PM,44.6,26.6,49,30.38,10.0,Calm,Calm,-,N/A,,Clear,0,2012-12-29 19:55:00
2:55 PM,47.1,28.0,48,30.37,10.0,ENE,5.8,-,N/A,,Clear,70,2012-12-29 20:55:00
3:55 PM,47.7,27.7,46,30.37,10.0,SE,3.5,-,N/A,,Clear,130,2012-12-29 21:55:00
4:55 PM,45.1,28.9,53,30.37,10.0,ESE,6.9,-,N/A,,Clear,110,2012-12-29 22:55:00
5:55 PM,36.3,28.4,73,30.37,10.0,ESE,6.9,-,N/A,,Clear,110,2012-12-29 23:55:00
6:55 PM,33.6,27.3,78,30.38,10.0,SE,3.5,-,N/A,,Clear,140,2012-12-30 00:55:00
7:55 PM,30.9,25.0,79,30.39,10.0,SE,5.8,-,N/A,,Clear,130,2012-12-30 01:55:00
8:55 PM,29.1,24.8,84,30.40,10.0,Calm,Calm,-,N/A,,Clear,0,2012-12-30 02:55:00
9:55 PM,27.5,23.0,83,30.40,10.0,SE,4.6,-,N/A,,Clear,140,2012-12-30 03:55:00
10:55 PM,26.4,22.3,84,30.39,10.0,East,4.6,-,N/A,,Clear,100,2012-12-30 04:55:00
11:55 PM,24.8,21.6,87,30.38,10.0,ESE,4.6,-,N/A,,Clear,120,2012-12-30 05:55:00